• In Austria
  • List of Countries
  • For 7 days
  • Water Temperature
  • Satellite Maps
  • Weather Map
  • News
  • Weather Widgets
  • user-avatar
    Login

    Hourly Weather Soma

    Today, 21 July, Saturday

    Time Temperature Precipitation Wind Pressure Humidity
    00:00 +24°C° 0 mm 2 mps 739 mmHg 73%
    01:00 +24°C° 0 mm 2 mps 739 mmHg 76%
    02:00 +23°C° 0 mm 2 mps 739 mmHg 78%
    03:00 +23°C° 0 mm 2 mps 739 mmHg 79%
    04:00 +23°C° 0 mm 2 mps 739 mmHg 80%
    05:00 +21°C° 0 mm 2 mps 739 mmHg 81%
    06:00 +24°C° 0 mm 2 mps 740 mmHg 73%
    07:00 +26°C° 0 mm 2 mps 740 mmHg 65%
    08:00 +29°C° 0 mm 3 mps 740 mmHg 56%
    09:00 +30°C° 0 mm 3 mps 740 mmHg 51%
    10:00 +33°C° 0 mm 3 mps 740 mmHg 45%
    11:00 +35°C° 0 mm 4 mps 740 mmHg 39%
    12:00 +35°C° 0 mm 4 mps 740 mmHg 37%
    13:00 +36°C° 0 mm 4 mps 740 mmHg 35%
    14:00 +36°C° 0 mm 4 mps 740 mmHg 37%
    15:00 +36°C° 0 mm 4 mps 740 mmHg 37%
    16:00 +36°C° 0 mm 4 mps 740 mmHg 38%
    17:00 +36°C° 0 mm 5 mps 740 mmHg 38%
    18:00 +34°C° 0 mm 4 mps 740 mmHg 44%
    19:00 +31°C° 0 mm 3 mps 740 mmHg 50%
    20:00 +29°C° 0 mm 3 mps 740 mmHg 56%
    21:00 +28°C° 0 mm 2 mps 740 mmHg 59%
    22:00 +27°C° 0 mm 2 mps 740 mmHg 63%
    23:00 +26°C° 0 mm 2 mps 740 mmHg 66%

    Tomorrow, 22 July, Sunday

    Time Temperature Precipitation Wind Pressure Humidity
    00:00 +26°C° 0 mm 2 mps 741 mmHg 68%
    01:00 +25°C° 0 mm 1 mps 741 mmHg 70%
    02:00 +25°C° 0 mm 1 mps 741 mmHg 71%
    03:00 +24°C° 0 mm 1 mps 741 mmHg 72%
    04:00 +24°C° 0 mm 1 mps 741 mmHg 74%
    05:00 +24°C° 0 mm 1 mps 741 mmHg 75%
    06:00 +26°C° 0 mm 1 mps 741 mmHg 67%
    07:00 +28°C° 0 mm 2 mps 741 mmHg 60%
    08:00 +30°C° 0 mm 2 mps 741 mmHg 52%
    09:00 +31°C° 0 mm 2 mps 741 mmHg 45%
    10:00 +34°C° 0 mm 3 mps 741 mmHg 39%
    11:00 +35°C° 0 mm 3 mps 741 mmHg 32%
    12:00 +36°C° 0 mm 3 mps 741 mmHg 29%
    13:00 +37°C° 0 mm 3 mps 740 mmHg 27%
    14:00 +38°C° 0 mm 4 mps 740 mmHg 25%
    15:00 +38°C° 0 mm 4 mps 740 mmHg 25%
    16:00 +38°C° 0 mm 4 mps 739 mmHg 25%
    17:00 +38°C° 0 mm 4 mps 739 mmHg 26%
    18:00 +35°C° 0 mm 3 mps 739 mmHg 31%
    19:00 +32°C° 0 mm 2 mps 739 mmHg 37%
    20:00 +30°C° 0 mm 1 mps 739 mmHg 43%
    21:00 +29°C° 0 mm 1 mps 739 mmHg 45%
    22:00 +28°C° 0 mm 1 mps 739 mmHg 47%
    23:00 +27°C° 0 mm 1 mps 739 mmHg 49%

    Day after tomorrow, 23 July, Monday

    Time Temperature Precipitation Wind Pressure Humidity
    00:00 +27°C° 0 mm 1 mps 739 mmHg 50%
    01:00 +27°C° 0 mm 1 mps 738 mmHg 51%
    02:00 +26°C° 0 mm 1 mps 738 mmHg 52%
    03:00 +26°C° 0 mm 1 mps 738 mmHg 53%
    04:00 +26°C° 0 mm 1 mps 737 mmHg 55%
    05:00 +25°C° 0 mm 1 mps 737 mmHg 56%
    06:00 +27°C° 0 mm 1 mps 737 mmHg 51%
    07:00 +29°C° 0 mm 2 mps 737 mmHg 45%
    08:00 +31°C° 0 mm 2 mps 737 mmHg 40%
    09:00 +34°C° 0 mm 2 mps 737 mmHg 35%
    10:00 +36°C° 0 mm 3 mps 737 mmHg 31%
    11:00 +38°C° 0 mm 4 mps 737 mmHg 26%
    12:00 +38°C° 0 mm 4 mps 736 mmHg 25%
    13:00 +40°C° 0 mm 5 mps 736 mmHg 24%
    14:00 +40°C° 0 mm 6 mps 736 mmHg 23%
    15:00 +39°C° 0 mm 6 mps 735 mmHg 24%
    16:00 +38°C° 0 mm 6 mps 735 mmHg 26%
    17:00 +38°C° 0 mm 6 mps 735 mmHg 27%
    18:00 +34°C° 0 mm 4 mps 735 mmHg 32%
    19:00 +31°C° 0 mm 3 mps 735 mmHg 37%
    20:00 +29°C° 0 mm 2 mps 735 mmHg 41%
    21:00 +28°C° 0 mm 2 mps 735 mmHg 43%
    22:00 +28°C° 0 mm 1 mps 735 mmHg 45%
    23:00 +27°C° 0 mm 1 mps 735 mmHg 46%

    24 July, Tuesday

    Time Temperature Precipitation Wind Pressure Humidity
    00:00 +26°C° 0 mm 1 mps 734 mmHg 47%
    01:00 +26°C° 0 mm 1 mps 734 mmHg 48%
    02:00 +26°C° 0 mm 1 mps 733 mmHg 49%
    03:00 +25°C° 0.2 mm 1 mps 733 mmHg 50%
    04:00 +25°C° 0.2 mm 1 mps 733 mmHg 52%
    05:00 +24°C° 0.2 mm 1 mps 733 mmHg 53%
    06:00 +26°C° 0.2 mm 2 mps 733 mmHg 50%
    07:00 +28°C° 0.2 mm 2 mps 733 mmHg 47%
    08:00 +30°C° 0.2 mm 2 mps 733 mmHg 44%
    09:00 +31°C° 0 mm 3 mps 734 mmHg 40%
    10:00 +34°C° 0 mm 4 mps 734 mmHg 37%
    11:00 +35°C° 0 mm 4 mps 734 mmHg 33%
    12:00 +36°C° 0 mm 5 mps 734 mmHg 32%
    13:00 +36°C° 0 mm 5 mps 734 mmHg 31%
    14:00 +36°C° 0 mm 5 mps 733 mmHg 30%
    15:00 +35°C° 0 mm 5 mps 733 mmHg 33%
    16:00 +35°C° 0 mm 5 mps 734 mmHg 35%
    17:00 +34°C° 0 mm 5 mps 734 mmHg 38%
    18:00 +32°C° 0.8 mm 4 mps 734 mmHg 48%
    19:00 +29°C° 0.8 mm 3 mps 734 mmHg 57%
    20:00 +26°C° 0.8 mm 2 mps 734 mmHg 67%
    21:00 +26°C° 0.5 mm 2 mps 735 mmHg 70%
    22:00 +26°C° 0.5 mm 1 mps 735 mmHg 72%
    23:00 +25°C° 0.5 mm 1 mps 735 mmHg 74%

    25 July, Wednesday

    Time Temperature Precipitation Wind Pressure Humidity
    00:00 +25°C° 0.1 mm 1 mps 735 mmHg 76%
    01:00 +24°C° 0.1 mm 1 mps 735 mmHg 77%
    02:00 +24°C° 0.1 mm 1 mps 735 mmHg 79%
    03:00 +22°C° 0.1 mm 0 mps 735 mmHg 80%
    04:00 +21°C° 0.1 mm 0 mps 735 mmHg 82%
    05:00 +21°C° 0.1 mm 0 mps 735 mmHg 83%
    06:00 +22°C° 0.2 mm 0 mps 736 mmHg 76%
    07:00 +26°C° 0.2 mm 1 mps 736 mmHg 69%
    08:00 +27°C° 0.2 mm 1 mps 736 mmHg 61%
    09:00 +29°C° 0.1 mm 1 mps 736 mmHg 55%
    10:00 +30°C° 0.1 mm 2 mps 736 mmHg 50%
    11:00 +32°C° 0.1 mm 2 mps 736 mmHg 44%
    12:00 +32°C° 0 mm 2 mps 736 mmHg 42%
    13:00 +32°C° 0 mm 2 mps 736 mmHg 41%
    14:00 +34°C° 0 mm 3 mps 736 mmHg 39%
    15:00 +34°C° 0 mm 3 mps 736 mmHg 40%
    16:00 +33°C° 0 mm 3 mps 736 mmHg 41%
    17:00 +33°C° 0 mm 3 mps 736 mmHg 42%
    18:00 +31°C° 0.2 mm 3 mps 736 mmHg 47%
    19:00 +29°C° 0.2 mm 3 mps 736 mmHg 53%
    20:00 +28°C° 0.2 mm 2 mps 736 mmHg 58%
    21:00 +27°C° 0.2 mm 2 mps 736 mmHg 61%
    22:00 +26°C° 0.2 mm 2 mps 737 mmHg 65%
    23:00 +25°C° 0.2 mm 1 mps 737 mmHg 69%

    26 July, Thursday

    Time Temperature Precipitation Wind Pressure Humidity
    00:00 +25°C° 0 mm 1 mps 737 mmHg 70%
    01:00 +24°C° 0 mm 1 mps 737 mmHg 72%
    02:00 +24°C° 0 mm 1 mps 737 mmHg 74%
    03:00 +24°C° 0 mm 1 mps 737 mmHg 76%
    04:00 +23°C° 0 mm 1 mps 737 mmHg 78%
    05:00 +23°C° 0 mm 1 mps 737 mmHg 80%
    06:00 +25°C° 0 mm 2 mps 737 mmHg 74%
    07:00 +26°C° 0 mm 2 mps 737 mmHg 68%
    08:00 +28°C° 0 mm 2 mps 737 mmHg 62%
    09:00 +30°C° 0 mm 2 mps 737 mmHg 56%
    10:00 +31°C° 0 mm 2 mps 737 mmHg 49%
    11:00 +34°C° 0 mm 2 mps 737 mmHg 42%
    12:00 +35°C° 0 mm 2 mps 737 mmHg 39%
    13:00 +36°C° 0 mm 2 mps 737 mmHg 36%
    14:00 +37°C° 0 mm 2 mps 737 mmHg 33%
    15:00 +36°C° 0 mm 3 mps 737 mmHg 34%
    16:00 +35°C° 0 mm 3 mps 737 mmHg 36%
    17:00 +35°C° 0 mm 3 mps 737 mmHg 38%
    18:00 +33°C° 0.2 mm 3 mps 737 mmHg 45%
    19:00 +30°C° 0.2 mm 3 mps 738 mmHg 53%
    20:00 +29°C° 0.2 mm 2 mps 738 mmHg 60%
    21:00 +28°C° 0.2 mm 2 mps 738 mmHg 64%
    22:00 +27°C° 0.2 mm 2 mps 738 mmHg 69%
    23:00 +26°C° 0.2 mm 1 mps 739 mmHg 74%
    Show more